[[{"header":{"parameterUnit":"m.s-1","parameterCategory":1,"la1":30.2991,"la2":30.254,"lo1":-89.0895,"lo2":-89.0444,"dy":0.0017,"dx":0.0017,"nx":28,"ny":28,"refTime":"2024-04-30T21:00:00:Z","depth":0,"parameterNumber":2,"parameterNumberName":"U-component_of_WINDS"},"data":[0,0,0,0,0,0,0,0,0,0,0,0,0,0,0,0,0,0,0,0,0,0,0,0,0,0,0,0,0,0,0,0,0,0,0,0,0,0,0,0,0,0,0,0,0,0,0,0,0,0,0,0,0,0,0,0,0,0,-1.4039,-1.4038,0,-1.3963,-1.3962,-1.3961,-1.3909,-1.3908,-1.3908,-1.3908,-1.3828,-1.3826,-1.3825,0,0,0,0,0,0,0,0,0,0,0,0,0,-1.4141,-1.4139,-1.4039,-1.4038,-1.4037,-1.3963,-1.3962,-1.3961,-1.3909,-1.3908,-1.3908,-1.3908,-1.3829,-1.3827,-1.3824,0,0,0,0,0,0,0,0,0,0,0,0,0,-1.4084,-1.4139,-1.4039,-1.4002,-1.3998,-1.3963,-1.3962,-1.396,-1.3909,-1.3908,-1.3908,-1.3907,-1.3829,-1.3827,-1.3824,-1.3819,0,0,-1.3816,-1.3815,0,0,0,0,0,0,0,0,-1.4087,-1.408,-1.4009,-1.4005,-1.4,-1.3945,-1.3968,-1.3913,-1.3909,-1.3943,-1.3908,-1.3907,-1.3867,-1.3861,-1.3848,-1.3815,-1.3812,-1.3816,-1.3814,-1.3813,-1.3812,0,0,0,0,0,0,0,-1.4091,-1.4083,-1.4009,-1.4008,-1.4003,-1.399,-1.3981,-1.3958,-1.3909,-1.394,-1.3936,-1.3928,-1.3865,-1.3851,-1.3846,-1.3811,-1.3816,-1.3814,-1.3812,-1.3811,-1.3771,-1.3772,0,0,0,0,0,0,-1.4101,-1.4087,-1.4011,-1.4006,-1.4043,-1.3989,-1.3979,-1.3963,-1.3909,-1.39,-1.3928,-1.3925,-1.3856,-1.3849,-1.3843,-1.3834,-1.3813,-1.3811,-1.3809,-1.3771,-1.3771,-1.3772,0,0,0,0,0,0,-1.4103,-1.4095,-1.4014,-1.4045,-1.4034,-1.3987,-1.397,-1.3962,-1.3948,-1.39,-1.3891,-1.3923,-1.3855,-1.3847,-1.3826,-1.383,-1.3809,-1.3807,-1.377,-1.3771,-1.3772,-1.3815,0,0,0,0,0,0,-1.4106,-1.4096,-1.4093,-1.4046,-1.4033,-1.3998,-1.397,-1.3961,-1.3944,-1.3939,-1.3893,-1.3885,-1.3854,-1.383,-1.3823,-1.3826,-1.3805,-1.3769,-1.377,-1.3771,-1.3813,-1.3818,-1.3821,0,0,0,0,0,-1.411,-1.4108,-1.4093,-1.4084,-1.4028,-1.3998,-1.3991,-1.3956,-1.3944,-1.3941,-1.3911,-1.3886,-1.3832,-1.3828,-1.382,-1.3823,-1.3769,-1.377,-1.3771,-1.3812,-1.3817,-1.3821,0,0,0,0,0,0,-1.4155,-1.4101,-1.4084,-1.4066,-1.4038,-1.399,-1.3985,-1.3962,-1.3936,-1.3933,-1.3891,-1.3881,-1.3864,-1.3841,-1.3839,-1.3816,-1.3797,-1.3797,-1.3831,-1.3835,-1.3839,-1.3845,-1.3803,0,0,0,0,0,-1.4164,-1.4144,-1.4097,-1.4086,-1.4073,-1.4032,-1.4017,-1.3993,-1.3961,-1.3949,-1.3917,-1.3887,-1.3863,-1.3848,-1.3824,-1.3811,-1.38,-1.3809,-1.3813,-1.3816,-1.3816,-1.3808,-1.3812,-1.3776,-1.3776,-1.3776,0,0,-1.418,-1.4148,-1.4137,-1.4095,-1.4069,-1.405,-1.4021,-1.4002,-1.3988,-1.3946,-1.3924,-1.39,-1.3864,-1.3848,-1.3839,-1.3828,-1.3824,-1.3818,-1.3821,-1.3818,-1.381,-1.3813,-1.3817,-1.3777,-1.3777,-1.3776,0,0,-1.4199,-1.4173,-1.4161,-1.4137,-1.41,-1.4073,-1.4071,-1.4027,-1.401,-1.3988,-1.3956,-1.3939,-1.3898,-1.3874,-1.3857,-1.3871,-1.3847,-1.3864,-1.3884,-1.3877,-1.388,-1.3883,-1.3888,-1.389,-1.3864,-1.3864,-1.3864,0,-1.4224,-1.4193,-1.4158,-1.4141,-1.4123,-1.4086,-1.4074,-1.4053,-1.4009,-1.3998,-1.3988,-1.3937,-1.391,-1.3888,-1.3892,-1.3879,-1.3875,-1.3868,-1.3883,-1.3885,-1.3886,-1.3891,-1.3893,-1.3866,-1.3866,-1.3866,-1.3866,0,-1.4226,-1.4206,-1.4201,-1.4161,-1.4143,-1.4129,-1.4091,-1.4078,-1.4056,-1.403,-1.4009,-1.3976,-1.3945,-1.3938,-1.3916,-1.3913,-1.3908,-1.3891,-1.3871,-1.3893,-1.3896,-1.3897,-1.387,-1.3869,-1.3868,-1.3868,0,0,-1.4269,-1.4212,-1.421,-1.4193,-1.415,-1.4134,-1.4119,-1.4089,-1.4078,-1.4051,-1.4037,-1.4005,-1.399,-1.397,-1.3945,-1.394,-1.3953,-1.3923,-1.3921,-1.393,-1.3949,-1.3962,-1.3964,-1.3938,-1.3939,-1.3939,-1.3952,0,-1.4282,-1.4252,-1.4221,-1.4202,-1.4184,-1.415,-1.4137,-1.411,-1.4086,-1.4067,-1.4041,-1.402,-1.4,-1.3989,-1.3982,-1.3953,-1.3957,-1.3952,-1.3925,-1.3925,-1.3934,-1.3966,-1.3979,-1.3993,-1.3953,-1.3953,-1.3953,0,-1.4292,-1.4267,-1.4247,-1.4208,-1.4199,-1.4188,-1.4159,-1.4141,-1.4111,-1.4094,-1.4074,-1.4048,-1.4031,-1.4016,-1.3992,-1.3989,-1.3977,-1.3962,-1.3962,-1.3957,-1.3939,-1.3961,-1.3996,-1.3998,-1.3955,-1.3955,-1.3955,0,-1.4326,-1.4287,-1.427,-1.4256,-1.421,-1.4203,-1.4184,-1.4153,-1.4138,-1.4113,-1.4103,-1.4076,-1.4061,-1.4041,-1.401,-1.4001,-1.399,-1.3971,-1.3976,-1.3977,-1.3973,-1.3974,-1.4006,-1.3967,-1.3967,-1.3967,-1.3967,0,-1.4342,-1.4332,-1.4285,-1.4275,-1.4262,-1.4227,-1.4215,-1.4193,-1.4166,-1.4151,-1.4121,-1.4107,-1.4067,-1.4049,-1.4024,-1.4009,-1.4003,-1.3989,-1.3982,-1.3991,-1.3993,-1.3981,-1.3979,-1.3967,-1.3967,-1.3967,-1.3967,0,-1.4377,-1.4345,-1.4325,-1.4284,-1.4274,-1.4266,-1.4231,-1.4221,-1.4197,-1.4178,-1.4172,-1.4134,-1.4112,-1.4079,-1.4046,-1.403,-1.4018,-1.4008,-1.4029,-1.4024,-1.4031,-1.4031,-1.4056,-1.4058,-1.4019,-1.4019,-1.4019,0,-1.4389,-1.438,-1.4339,-1.4327,-1.4309,-1.429,-1.4275,-1.4241,-1.4227,-1.4193,-1.4186,-1.4162,-1.414,-1.4106,-1.4076,-1.4051,-1.404,-1.4051,-1.4036,-1.4046,-1.404,-1.404,-1.404,-1.4054,-1.4054,-1.4055,-1.4055,0,-1.4415,-1.44,-1.4379,-1.4354,-1.4337,-1.4315,-1.4291,-1.4284,-1.4245,-1.423,-1.4207,-1.4191,-1.4159,-1.4135,-1.4107,-1.4087,-1.4065,-1.4061,-1.406,-1.4069,-1.4081,-1.4074,-1.4037,-1.406,-1.4059,-1.4059,-1.4059,-1.4058,-1.4438,-1.4429,-1.4399,-1.4378,-1.4357,-1.4336,-1.4325,-1.43,-1.428,-1.4252,-1.4233,-1.4212,-1.4183,-1.4143,-1.4125,-1.4108,-1.4098,-1.4098,-1.4098,-1.4098,-1.4101,-1.4085,-1.4103,-1.4103,-1.4103,-1.4102,-1.4102,0,-1.4462,-1.4442,-1.4422,-1.4391,-1.4375,-1.4356,-1.433,-1.4317,-1.4299,-1.4275,-1.4255,-1.423,-1.4207,-1.4176,-1.4152,-1.4144,-1.4133,-1.4139,-1.4138,-1.4135,-1.4111,-1.4114,-1.4148,-1.4148,-1.4148,-1.4148,-1.4148,-1.4148,-1.4472,-1.4456,-1.4439,-1.4413,-1.4392,-1.4371,-1.4358,-1.4339,-1.432,-1.4293,-1.4275,-1.4255,-1.4228,-1.4202,-1.4181,-1.4172,-1.4165,-1.4173,-1.4162,-1.414,-1.4136,-1.4132,-1.4134,-1.4172,-1.4172,-1.4186,-1.4186,-1.4186]},{"header":{"parameterUnit":"m.s-1","parameterCategory":1,"la1":30.2991,"la2":30.254,"lo1":-89.0895,"lo2":-89.0444,"dy":0.0017,"dx":0.0017,"nx":28,"ny":28,"refTime":"2024-04-30T21:00:00:Z","depth":0,"parameterNumber":3,"parameterNumberName":"V-component_of_WINDS"},"data":[0,0,0,0,0,0,0,0,0,0,0,0,0,0,0,0,0,0,0,0,0,0,0,0,0,0,0,0,0,0,0,0,0,0,0,0,0,0,0,0,0,0,0,0,0,0,0,0,0,0,0,0,0,0,0,0,0,0,3.162,3.162,0,3.1639,3.1639,3.1639,3.1695,3.1696,3.1697,3.1698,3.1712,3.1712,3.1711,0,0,0,0,0,0,0,0,0,0,0,0,0,3.1628,3.1627,3.162,3.162,3.162,3.1639,3.1639,3.1639,3.1695,3.1696,3.1698,3.1699,3.1713,3.1712,3.1711,0,0,0,0,0,0,0,0,0,0,0,0,0,3.1633,3.1627,3.162,3.165,3.1653,3.1639,3.1639,3.1639,3.1694,3.1696,3.1698,3.17,3.1713,3.1712,3.1711,3.1667,0,0,3.1707,3.1707,0,0,0,0,0,0,0,0,3.1633,3.1633,3.1646,3.1648,3.1651,3.1666,3.1647,3.1648,3.1694,3.1678,3.1698,3.1701,3.1695,3.1696,3.1695,3.1667,3.1668,3.1707,3.1706,3.1706,3.1705,0,0,0,0,0,0,0,3.1632,3.1632,3.1627,3.1646,3.1649,3.1662,3.1665,3.1647,3.1676,3.168,3.1684,3.1686,3.1697,3.1696,3.1696,3.1668,3.1707,3.1706,3.1705,3.1705,3.1606,3.1604,0,0,0,0,0,0,3.1628,3.1631,3.1627,3.1628,3.1647,3.166,3.1663,3.166,3.1676,3.1681,3.1684,3.1688,3.1697,3.1697,3.1696,3.1647,3.1706,3.1705,3.1704,3.1608,3.1606,3.1604,0,0,0,0,0,0,3.1628,3.1627,3.1626,3.1631,3.1632,3.1658,3.1653,3.1659,3.1658,3.168,3.1685,3.1678,3.1698,3.1698,3.1674,3.1648,3.1704,3.1703,3.161,3.1607,3.1605,3.1547,0,0,0,0,0,0,3.1628,3.1627,3.1611,3.163,3.1631,3.1604,3.1652,3.1658,3.1656,3.1662,3.1675,3.1679,3.17,3.1676,3.1673,3.1648,3.1702,3.1613,3.1609,3.1606,3.1551,3.1542,3.1535,0,0,0,0,0,3.1628,3.1592,3.161,3.1609,3.1612,3.1603,3.1603,3.1629,3.1654,3.1638,3.1652,3.1679,3.1651,3.1673,3.167,3.1644,3.1615,3.161,3.1606,3.1555,3.1544,3.1535,0,0,0,0,0,0,3.1567,3.1595,3.1615,3.1585,3.1591,3.1612,3.1593,3.1617,3.1615,3.162,3.1651,3.1653,3.1625,3.1632,3.1655,3.1603,3.1637,3.1632,3.1599,3.1589,3.1581,3.158,3.1701,0,0,0,0,0,3.1551,3.1542,3.1567,3.1538,3.154,3.1566,3.1562,3.1582,3.1589,3.1592,3.1604,3.1609,3.1602,3.1596,3.159,3.1553,3.1556,3.1533,3.1525,3.1518,3.1513,3.1495,3.1485,3.159,3.159,3.159,0,0,3.1516,3.153,3.1522,3.1526,3.1533,3.1523,3.1567,3.1554,3.1546,3.1589,3.1568,3.1577,3.1585,3.1554,3.1541,3.1559,3.1486,3.1513,3.1507,3.1506,3.149,3.148,3.1471,3.1587,3.1587,3.1588,0,0,3.1447,3.1457,3.1435,3.1442,3.1453,3.1471,3.1465,3.1483,3.1491,3.1471,3.1504,3.1494,3.1481,3.1485,3.1485,3.142,3.1444,3.1417,3.1374,3.1355,3.1347,3.134,3.1317,3.1309,3.1412,3.1412,3.1412,0,3.1402,3.1389,3.142,3.1405,3.1405,3.1446,3.1424,3.1428,3.1436,3.1435,3.1455,3.144,3.1448,3.1419,3.1404,3.1402,3.1397,3.1415,3.1346,3.1339,3.1333,3.1312,3.1303,3.1408,3.1409,3.1409,3.1409,0,3.1333,3.1323,3.1304,3.1313,3.1311,3.1292,3.1319,3.1313,3.1334,3.1349,3.1328,3.1339,3.1337,3.1331,3.135,3.1306,3.1317,3.1341,3.1376,3.1319,3.13,3.1292,3.1404,3.1405,3.1406,3.1407,0,0,3.1226,3.1254,3.1246,3.1252,3.1268,3.126,3.1243,3.1243,3.1238,3.1242,3.1228,3.1216,3.124,3.124,3.1259,3.1243,3.1192,3.127,3.1271,3.1256,3.1145,3.1127,3.1117,3.1208,3.1207,3.1206,3.1145,0,3.1161,3.1136,3.1164,3.1131,3.1123,3.1162,3.1147,3.1155,3.1169,3.1163,3.1177,3.1169,3.12,3.1201,3.1187,3.1201,3.117,3.1206,3.1195,3.1194,3.1193,3.1107,3.1087,3.1029,3.1137,3.1136,3.1135,0,3.1083,3.1086,3.1054,3.1074,3.1071,3.1057,3.106,3.1054,3.1064,3.1075,3.1076,3.1101,3.1084,3.1119,3.1097,3.1121,3.1118,3.1124,3.1123,3.1123,3.1161,3.1105,3.1011,3.1002,3.1123,3.1124,3.1125,0,3.1009,3.1005,3.0986,3.0989,3.1011,3.1001,3.1009,3.1021,3.1019,3.1021,3.1021,3.1019,3.1019,3.1017,3.1041,3.1064,3.1016,3.1052,3.1024,3.1024,3.1012,3.1013,3.0917,3.101,3.101,3.101,3.101,0,3.0935,3.0913,3.0953,3.0941,3.0919,3.095,3.0927,3.0939,3.0949,3.0939,3.0972,3.0962,3.0994,3.0987,3.1005,3.0984,3.0983,3.0991,3.0996,3.0989,3.0988,3.0987,3.0992,3.1008,3.1008,3.1009,3.1009,0,3.0848,3.0874,3.0856,3.0879,3.0884,3.0867,3.0886,3.0875,3.0892,3.088,3.0878,3.0904,3.0898,3.0921,3.0918,3.093,3.09,3.0911,3.0897,3.0901,3.0872,3.0874,3.0773,3.0761,3.0861,3.086,3.0859,0,3.0799,3.0785,3.0807,3.0804,3.0811,3.0806,3.0805,3.0836,3.0834,3.0844,3.0832,3.0829,3.0828,3.0816,3.0833,3.0831,3.0843,3.0808,3.0843,3.0836,3.0844,3.0844,3.0843,3.08,3.0799,3.0798,3.0797,0,3.071,3.0724,3.0723,3.0727,3.0726,3.073,3.0735,3.0731,3.0764,3.0759,3.0755,3.0754,3.0752,3.0749,3.0751,3.0758,3.0783,3.0786,3.078,3.0772,3.0765,3.0769,3.0878,3.0788,3.0789,3.079,3.0791,3.0791,3.0642,3.0631,3.0646,3.0643,3.0652,3.0657,3.0649,3.0665,3.0662,3.0664,3.0682,3.0674,3.0684,3.069,3.0695,3.0688,3.0705,3.0695,3.0693,3.069,3.0686,3.0766,3.0689,3.0689,3.0689,3.0689,3.069,0,3.0555,3.0567,3.0565,3.0573,3.0571,3.0597,3.0605,3.0602,3.0595,3.0603,3.0603,3.0597,3.0594,3.0612,3.0611,3.0603,3.0614,3.0601,3.0602,3.0604,3.0671,3.0677,3.0592,3.0592,3.0592,3.0592,3.0592,3.0592,3.051,3.0493,3.0509,3.0496,3.0508,3.0502,3.0504,3.0509,3.0516,3.051,3.0508,3.0521,3.0533,3.0533,3.0532,3.0537,3.0535,3.0519,3.0528,3.059,3.0599,3.0608,3.0614,3.0518,3.0518,3.0462,3.0461,3.0461]}]]